SVA968 VGHS-OEJN

Flight info

Callsign SVA968
Flight time N/A
Altitude 30000
Route IKOGU1A IKOGU A462 CEA A791 BPL L639 MILUP/N0480F320 L639 RASKI N881 KIPOL L444 TOLDA M628 PEKEM DCT MEDPO DCT ITRUX Y511 ASMIS T218 IMGUT M309 VEMEM
Aircraft MD11/H-SDE1E2E3FGHIJ2J3J4J5M1RWXY/LB1D1

Departure

Time 2026-04-23 14:07
Airport Hazrat Shahjalal International Airport (VGHS)

Arrival

Time N/A
Airport King Abdulaziz International Airport (OEJN)
Time Latitude Longitude Altitude Speed Heading
2026-04-23 13:31 23.84939 90.40237 43 ft 0 kts 52°
2026-04-23 13:52 23.84934 90.40230 43 ft 2 kts 51°
2026-04-23 13:53 23.84923 90.40216 41 ft 2 kts 45°
2026-04-23 13:53 23.84911 90.40204 41 ft 2 kts 30°
2026-04-23 13:53 23.84895 90.40197 40 ft 2 kts 343°
2026-04-23 13:53 23.84884 90.40205 40 ft 1 kts 326°
2026-04-23 13:54 23.84882 90.40206 40 ft 0 kts 324°
2026-04-23 14:00 23.84883 90.40205 40 ft 1 kts 324°
2026-04-23 14:00 23.84904 90.40188 37 ft 5 kts 324°
2026-04-23 14:00 23.84944 90.40167 43 ft 8 kts 341°
2026-04-23 14:01 23.84982 90.40147 43 ft 10 kts 331°
2026-04-23 14:01 23.85078 90.40080 42 ft 14 kts 323°
2026-04-23 14:01 23.85098 90.40045 43 ft 6 kts 275°
2026-04-23 14:01 23.85076 90.39971 43 ft 8 kts 237°
2026-04-23 14:02 23.85063 90.39945 43 ft 6 kts 241°
2026-04-23 14:02 23.85055 90.39900 43 ft 6 kts 279°
2026-04-23 14:02 23.85083 90.39853 43 ft 9 kts 316°
2026-04-23 14:02 23.85144 90.39803 43 ft 13 kts 323°
2026-04-23 14:03 23.85232 90.39730 43 ft 18 kts 325°
2026-04-23 14:03 23.85345 90.39643 43 ft 22 kts 324°
2026-04-23 14:03 23.85479 90.39538 43 ft 19 kts 322°
2026-04-23 14:03 23.85575 90.39460 43 ft 19 kts 324°
2026-04-23 14:04 23.85689 90.39368 43 ft 18 kts 319°
2026-04-23 14:04 23.85738 90.39257 43 ft 15 kts 270°
2026-04-23 14:04 23.85689 90.39141 43 ft 19 kts 233°
2026-04-23 14:04 23.85606 90.39019 43 ft 15 kts 233°
2026-04-23 14:05 23.85532 90.38912 41 ft 18 kts 230°
2026-04-23 14:05 23.85485 90.38892 42 ft 6 kts 177°
2026-04-23 14:05 23.85437 90.38914 43 ft 10 kts 148°
2026-04-23 14:05 23.85350 90.38982 43 ft 29 kts 144°
2026-04-23 14:06 23.84989 90.39266 43 ft 96 kts 143°
2026-04-23 14:06 23.84371 90.39750 43 ft 122 kts 144°
2026-04-23 14:06 23.83631 90.40330 45 ft 139 kts 145°
2026-04-23 14:06 23.83052 90.40795 51 ft 173 kts 143°
2026-04-23 14:07 23.79838 90.43235 2320 ft 186 kts 157°
2026-04-23 14:07 23.78586 90.43613 2933 ft 187 kts 175°
2026-04-23 14:08 23.75213 90.42227 3636 ft 247 kts 229°
2026-04-23 14:09 23.75396 90.35013 6004 ft 283 kts 289°
2026-04-23 14:09 23.75972 90.32218 7108 ft 285 kts 269°
2026-04-23 14:09 23.75777 90.30799 7627 ft 288 kts 253°
2026-04-23 14:10 23.74915 90.28800 8323 ft 295 kts 241°
2026-04-23 14:10 23.73803 90.26892 9040 ft 301 kts 238°
2026-04-23 14:10 23.72617 90.24990 9767 ft 305 kts 238°
2026-04-23 14:10 23.71378 90.23019 9995 ft 328 kts 238°
2026-04-23 14:11 23.70042 90.20876 10118 ft 354 kts 238°
2026-04-23 14:11 23.68642 90.18618 10618 ft 363 kts 237°
2026-04-23 14:11 23.67216 90.16310 11271 ft 369 kts 237°
2026-04-23 14:11 23.65776 90.13970 11921 ft 375 kts 237°
2026-04-23 14:12 23.63816 90.10779 12756 ft 382 kts 237°
2026-04-23 14:12 23.62835 90.09178 13158 ft 385 kts 237°
2026-04-23 14:12 23.61334 90.06731 13747 ft 391 kts 237°
2026-04-23 14:12 23.59841 90.04236 14297 ft 395 kts 238°
2026-04-23 14:13 23.58387 90.01689 14857 ft 399 kts 239°
2026-04-23 14:13 23.56940 89.99097 15390 ft 403 kts 239°
2026-04-23 14:13 23.55489 89.96480 15919 ft 406 kts 239°
2026-04-23 14:13 23.54017 89.93824 16431 ft 410 kts 239°
2026-04-23 14:14 23.52530 89.91146 16948 ft 414 kts 239°
2026-04-23 14:14 23.51030 89.88449 17445 ft 418 kts 239°
2026-04-23 14:14 23.49519 89.85735 17938 ft 422 kts 238°
2026-04-23 14:14 23.47987 89.82988 18381 ft 425 kts 238°
2026-04-23 14:15 23.46450 89.80235 18839 ft 427 kts 238°
2026-04-23 14:15 23.44906 89.77471 19281 ft 429 kts 238°
2026-04-23 14:15 23.43350 89.74686 19726 ft 431 kts 238°
2026-04-23 14:15 23.41789 89.71895 20170 ft 433 kts 238°
2026-04-23 14:16 23.40243 89.69132 20603 ft 434 kts 238°
2026-04-23 14:16 23.38665 89.66314 21054 ft 436 kts 238°
2026-04-23 14:16 23.37052 89.63508 21508 ft 439 kts 237°
2026-04-23 14:16 23.35401 89.60718 21966 ft 440 kts 237°
2026-04-23 14:17 23.33726 89.57921 22425 ft 443 kts 237°
2026-04-23 14:17 23.32080 89.55182 22893 ft 445 kts 237°
2026-04-23 14:17 23.30335 89.52278 23359 ft 447 kts 237°
2026-04-23 14:17 23.28632 89.49440 23825 ft 447 kts 237°
2026-04-23 14:18 23.26933 89.46606 24319 ft 447 kts 238°
2026-04-23 14:18 23.25235 89.43773 24816 ft 447 kts 238°
2026-04-23 14:18 23.23539 89.40943 25317 ft 447 kts 238°
2026-04-23 14:18 23.21838 89.38105 25800 ft 448 kts 238°
2026-04-23 14:19 23.20133 89.35263 26294 ft 448 kts 238°
2026-04-23 14:19 23.18433 89.32429 26753 ft 449 kts 238°
2026-04-23 14:19 23.16725 89.29586 27228 ft 449 kts 239°
2026-04-23 14:19 23.15018 89.26744 27690 ft 450 kts 239°
2026-04-23 14:20 23.13302 89.23889 28136 ft 451 kts 239°
2026-04-23 14:20 23.11588 89.21039 28544 ft 452 kts 239°
2026-04-23 14:20 23.09864 89.18175 28941 ft 451 kts 239°
2026-04-23 14:20 23.08151 89.15332 29338 ft 449 kts 239°
2026-04-23 14:21 23.06446 89.12503 29632 ft 447 kts 239°
2026-04-23 14:21 23.04741 89.09674 29700 ft 451 kts 239°
2026-04-23 14:21 23.01306 89.03978 29710 ft 456 kts 239°
2026-04-23 14:22 22.97832 88.98227 29714 ft 456 kts 239°
2026-04-23 14:22 22.94379 88.92518 29713 ft 456 kts 239°
2026-04-23 14:23 22.90966 88.86667 29707 ft 455 kts 241°
2026-04-23 14:23 22.87711 88.80779 29701 ft 455 kts 242°
2026-04-23 14:24 22.84481 88.74896 29714 ft 455 kts 242°
2026-04-23 14:24 22.81259 88.69050 29725 ft 454 kts 242°
2026-04-23 14:25 22.78017 88.63187 29732 ft 455 kts 242°
2026-04-23 14:25 22.74760 88.57305 29739 ft 455 kts 241°
2026-04-23 14:26 22.71502 88.51430 29745 ft 455 kts 241°
2026-04-23 14:26 22.68652 88.45355 29740 ft 451 kts 253°
2026-04-23 14:27 22.67937 88.42065 29745 ft 449 kts 264°
2026-04-23 14:27 22.67802 88.38953 29752 ft 449 kts 271°
2026-04-23 14:27 22.68310 88.32192 29744 ft 450 kts 275°
2026-04-23 14:28 22.68938 88.25454 29739 ft 450 kts 274°
2026-04-23 14:28 22.69449 88.18700 29730 ft 450 kts 274°
2026-04-23 14:29 22.69899 88.11935 29723 ft 450 kts 273°
2026-04-23 14:29 22.70335 88.05167 29718 ft 450 kts 273°
2026-04-23 14:30 22.70764 87.98485 29723 ft 451 kts 273°
2026-04-23 14:30 22.71203 87.91625 29719 ft 451 kts 273°
2026-04-23 14:31 22.71634 87.84856 29717 ft 451 kts 273°
2026-04-23 14:31 22.72063 87.78074 29721 ft 451 kts 273°
2026-04-23 14:32 22.72489 87.71302 29721 ft 451 kts 273°
2026-04-23 14:32 22.72912 87.64524 29726 ft 451 kts 273°
2026-04-23 14:33 22.73332 87.57745 29725 ft 451 kts 273°
2026-04-23 14:33 22.73749 87.50967 29724 ft 451 kts 273°
2026-04-23 14:34 22.74141 87.44309 29727 ft 451 kts 273°
2026-04-23 14:34 22.74541 87.37523 29727 ft 451 kts 273°
2026-04-23 14:35 22.74947 87.30734 29724 ft 451 kts 273°
2026-04-23 14:35 22.75354 87.23949 29727 ft 451 kts 273°
2026-04-23 14:36 22.75757 87.17178 29725 ft 451 kts 273°
2026-04-23 14:36 22.76158 87.10376 29734 ft 451 kts 273°
2026-04-23 14:37 22.76555 87.03593 29735 ft 451 kts 273°
2026-04-23 14:37 22.76950 86.96800 29740 ft 452 kts 273°
2026-04-23 14:38 22.77342 86.90002 29744 ft 452 kts 272°
2026-04-23 14:38 22.77731 86.83202 29745 ft 452 kts 272°
2026-04-23 14:39 22.78115 86.76450 29758 ft 452 kts 272°
2026-04-23 14:39 22.78499 86.69657 29758 ft 453 kts 272°
2026-04-23 14:40 22.78882 86.62829 29760 ft 453 kts 272°
2026-04-23 14:40 22.79249 86.56014 29767 ft 453 kts 272°
2026-04-23 14:41 22.79608 86.49243 30337 ft 451 kts 272°
2026-04-23 14:41 22.79793 86.45807 30686 ft 448 kts 272°
2026-04-23 14:41 22.79976 86.42441 31042 ft 445 kts 271°
2026-04-23 14:42 22.80157 86.39108 31391 ft 442 kts 271°
2026-04-23 14:42 22.80338 86.35791 31665 ft 441 kts 271°
2026-04-23 14:42 22.80693 86.29194 31745 ft 437 kts 271°
2026-04-23 14:43 22.81043 86.22616 31746 ft 437 kts 271°
2026-04-23 14:43 22.81426 86.16044 31746 ft 437 kts 272°
2026-04-23 14:44 22.81947 86.09473 31744 ft 438 kts 272°
2026-04-23 14:44 22.82502 86.02905 31754 ft 438 kts 272°
2026-04-23 14:45 22.83049 85.96342 31770 ft 437 kts 272°
2026-04-23 14:45 22.83584 85.89846 31788 ft 438 kts 272°
2026-04-23 14:46 22.84126 85.83198 31808 ft 438 kts 272°
2026-04-23 14:46 22.84660 85.76628 31832 ft 438 kts 272°
2026-04-23 14:47 22.85189 85.70086 31840 ft 437 kts 272°
2026-04-23 14:47 22.85716 85.63516 31847 ft 438 kts 272°
2026-04-23 14:48 22.86243 85.56933 31856 ft 438 kts 272°
2026-04-23 14:48 22.86766 85.50359 31859 ft 438 kts 272°
2026-04-23 14:49 22.87286 85.43783 31868 ft 438 kts 272°
2026-04-23 14:49 22.87803 85.37212 31872 ft 438 kts 272°
2026-04-23 14:50 22.88315 85.30674 31876 ft 438 kts 272°
2026-04-23 14:50 22.88816 85.24098 31875 ft 438 kts 272°
2026-04-23 14:51 22.89312 85.17522 31879 ft 438 kts 272°
2026-04-23 14:51 22.89815 85.10942 31881 ft 438 kts 272°
2026-04-23 14:52 22.90324 85.04371 31880 ft 438 kts 272°
2026-04-23 14:52 22.90834 84.97790 31877 ft 437 kts 272°
2026-04-23 14:53 22.91340 84.91222 31884 ft 437 kts 272°
2026-04-23 14:53 22.91843 84.84645 31881 ft 437 kts 272°
2026-04-23 14:54 22.92344 84.78070 31882 ft 437 kts 272°
2026-04-23 14:54 22.92758 84.72603 31886 ft 437 kts 272°
2026-04-23 14:55 22.93337 84.64917 31883 ft 437 kts 272°
2026-04-23 14:55 22.93827 84.58382 31886 ft 438 kts 272°
2026-04-23 14:56 22.94316 84.51804 31889 ft 437 kts 272°
2026-04-23 14:56 22.94804 84.45224 31890 ft 438 kts 272°
2026-04-23 14:57 22.95288 84.38639 31889 ft 438 kts 272°
2026-04-23 14:57 22.95771 84.32049 31890 ft 438 kts 272°
2026-04-23 14:58 22.96173 84.26521 31891 ft 439 kts 272°
2026-04-23 14:58 22.96638 84.19920 31889 ft 439 kts 272°
2026-04-23 14:59 22.97096 84.13312 31887 ft 439 kts 272°
2026-04-23 14:59 22.97478 84.06735 31888 ft 440 kts 271°
2026-04-23 15:00 22.97833 84.00101 31881 ft 440 kts 271°
2026-04-23 15:00 22.98189 83.93462 31878 ft 441 kts 271°
2026-04-23 15:01 22.98546 83.86816 31882 ft 441 kts 271°
2026-04-23 15:01 22.98901 83.80171 31879 ft 441 kts 271°
2026-04-23 15:02 22.99254 83.73525 31875 ft 442 kts 271°
2026-04-23 15:02 22.99605 83.66864 31873 ft 442 kts 271°
2026-04-23 15:03 22.99952 83.60202 31867 ft 442 kts 271°
2026-04-23 15:03 23.00297 83.53547 31860 ft 443 kts 271°
2026-04-23 15:04 23.00639 83.46875 31854 ft 443 kts 271°
2026-04-23 15:04 23.00979 83.40193 31851 ft 443 kts 271°
2026-04-23 15:05 23.01317 83.33517 31846 ft 444 kts 271°
2026-04-23 15:05 23.01652 83.26825 31843 ft 444 kts 271°
2026-04-23 15:06 23.01976 83.20134 31837 ft 444 kts 271°
2026-04-23 15:06 23.02291 83.13434 31831 ft 444 kts 271°
2026-04-23 15:07 23.02610 83.06785 31822 ft 445 kts 271°
2026-04-23 15:07 23.02935 83.00035 31821 ft 445 kts 271°
2026-04-23 15:08 23.03255 82.93369 31819 ft 445 kts 271°
2026-04-23 15:09 23.03733 82.83292 31813 ft 446 kts 271°
2026-04-23 15:09 23.04048 82.76571 31809 ft 446 kts 271°
2026-04-23 15:10 23.04361 82.69844 31810 ft 446 kts 271°
2026-04-23 15:10 23.04671 82.63111 31808 ft 447 kts 271°
2026-04-23 15:11 23.04977 82.56409 31805 ft 447 kts 271°
2026-04-23 15:11 23.05283 82.49634 31803 ft 447 kts 271°
2026-04-23 15:12 23.05585 82.42894 31805 ft 447 kts 271°
2026-04-23 15:12 23.05884 82.36146 31809 ft 447 kts 271°
2026-04-23 15:13 23.06170 82.29397 31806 ft 448 kts 271°
2026-04-23 15:13 23.06449 82.22634 31809 ft 448 kts 271°
2026-04-23 15:14 23.06750 82.15873 31810 ft 449 kts 271°
2026-04-23 15:14 23.07150 82.09095 31811 ft 450 kts 272°
2026-04-23 15:15 23.07580 82.02308 31811 ft 451 kts 272°
2026-04-23 15:15 23.08005 81.95510 31814 ft 451 kts 272°
2026-04-23 15:16 23.08424 81.88711 31815 ft 452 kts 272°
2026-04-23 15:16 23.08836 81.81942 31818 ft 453 kts 272°
2026-04-23 15:17 23.09248 81.75113 31819 ft 453 kts 272°
2026-04-23 15:17 23.09658 81.68286 31825 ft 454 kts 272°
2026-04-23 15:18 23.10065 81.61443 31828 ft 454 kts 272°
2026-04-23 15:18 23.10471 81.54586 31832 ft 455 kts 272°
2026-04-23 15:19 23.10873 81.47729 31834 ft 455 kts 272°
2026-04-23 15:19 23.11273 81.40855 31838 ft 456 kts 272°
2026-04-23 15:20 23.11670 81.33994 31840 ft 457 kts 272°
2026-04-23 15:20 23.12065 81.27088 31842 ft 457 kts 272°
2026-04-23 15:21 23.12441 81.20184 31850 ft 458 kts 271°
2026-04-23 15:21 23.12821 81.13285 31849 ft 458 kts 272°
2026-04-23 15:22 23.13206 81.06371 31850 ft 459 kts 271°
2026-04-23 15:22 23.13591 80.99447 31853 ft 459 kts 272°
2026-04-23 15:23 23.13973 80.92523 31851 ft 460 kts 272°
2026-04-23 15:23 23.14353 80.85591 31847 ft 460 kts 272°
2026-04-23 15:24 23.14729 80.78643 31855 ft 461 kts 272°
2026-04-23 15:24 23.15102 80.71691 31855 ft 461 kts 272°
2026-04-23 15:25 23.15477 80.64769 31850 ft 462 kts 272°
2026-04-23 15:25 23.15859 80.57752 31846 ft 462 kts 272°
2026-04-23 15:26 23.16234 80.50821 31851 ft 463 kts 272°
2026-04-23 15:26 23.16609 80.43844 31850 ft 463 kts 272°
2026-04-23 15:27 23.16981 80.36869 31843 ft 464 kts 272°
2026-04-23 15:27 23.17351 80.29870 31839 ft 465 kts 272°
2026-04-23 15:28 23.17719 80.22850 31837 ft 465 kts 272°
2026-04-23 15:28 23.18084 80.15825 31834 ft 466 kts 272°
2026-04-23 15:29 23.18445 80.08796 31832 ft 466 kts 272°
2026-04-23 15:29 23.18772 80.01756 31830 ft 467 kts 271°
2026-04-23 15:30 23.19073 79.94703 31834 ft 467 kts 271°
2026-04-23 15:30 23.19376 79.87647 31833 ft 468 kts 271°
2026-04-23 15:31 23.19680 79.80588 31837 ft 468 kts 271°
2026-04-23 15:31 23.19984 79.73520 31836 ft 469 kts 271°
2026-04-23 15:32 23.20284 79.66441 31834 ft 469 kts 271°
2026-04-23 15:32 23.20582 79.59357 31832 ft 469 kts 271°
2026-04-23 15:33 23.20789 79.52261 31831 ft 470 kts 270°
2026-04-23 15:33 23.20910 79.45164 31826 ft 470 kts 270°
2026-04-23 15:34 23.21029 79.38057 31830 ft 471 kts 270°
2026-04-23 15:34 23.21153 79.30947 31831 ft 471 kts 270°
2026-04-23 15:35 23.21278 79.23815 31828 ft 472 kts 270°
2026-04-23 15:35 23.21397 79.16844 31825 ft 472 kts 270°
2026-04-23 15:36 23.21515 79.09761 31826 ft 473 kts 270°
2026-04-23 15:36 23.21630 79.02612 31821 ft 473 kts 270°
2026-04-23 15:37 23.21743 78.95466 31823 ft 473 kts 270°
2026-04-23 15:37 23.21834 78.89521 31820 ft 473 kts 270°
2026-04-23 15:38 23.21958 78.81144 31818 ft 474 kts 270°
2026-04-23 15:38 23.22075 78.73981 31814 ft 474 kts 271°
2026-04-23 15:39 23.22357 78.66810 31809 ft 475 kts 272°
2026-04-23 15:39 23.22713 78.59685 31807 ft 475 kts 272°
2026-04-23 15:40 23.23069 78.52515 31809 ft 476 kts 272°
2026-04-23 15:40 23.23415 78.45330 31805 ft 476 kts 272°
2026-04-23 15:41 23.23755 78.38147 31810 ft 476 kts 272°
2026-04-23 15:41 23.24034 78.32168 31807 ft 476 kts 272°
2026-04-23 15:42 23.24423 78.23759 31802 ft 477 kts 272°
2026-04-23 15:42 23.24753 78.16557 31804 ft 477 kts 272°
2026-04-23 15:43 23.25025 78.10574 31806 ft 477 kts 272°
2026-04-23 15:43 23.25403 78.02146 31804 ft 478 kts 272°
2026-04-23 15:44 23.25724 77.94929 31809 ft 478 kts 272°
2026-04-23 15:44 23.25988 77.88930 31814 ft 478 kts 272°
2026-04-23 15:45 23.26344 77.80532 31819 ft 479 kts 272°
2026-04-23 15:45 23.26592 77.74470 31822 ft 479 kts 272°
2026-04-23 15:46 23.26894 77.67231 31824 ft 479 kts 272°
2026-04-23 15:46 23.27198 77.59992 31828 ft 480 kts 272°
2026-04-23 15:47 23.27500 77.52784 31828 ft 480 kts 272°
2026-04-23 15:47 23.27800 77.45526 31834 ft 480 kts 272°
2026-04-23 15:48 23.28096 77.38270 31838 ft 481 kts 272°
2026-04-23 15:48 23.28147 77.31101 31843 ft 480 kts 267°
2026-04-23 15:49 23.27657 77.23761 31844 ft 481 kts 265°
2026-04-23 15:49 23.27086 77.16520 31847 ft 481 kts 265°
2026-04-23 15:50 23.26550 77.09262 31855 ft 482 kts 265°
2026-04-23 15:50 23.26034 77.01992 31857 ft 482 kts 265°
2026-04-23 15:51 23.25520 76.94730 31860 ft 482 kts 265°
2026-04-23 15:51 23.25001 76.87460 31863 ft 482 kts 265°
2026-04-23 15:52 23.24477 76.80184 31867 ft 483 kts 265°
2026-04-23 15:52 23.23949 76.72908 31871 ft 483 kts 265°
2026-04-23 15:53 23.23418 76.65621 31876 ft 484 kts 265°
2026-04-23 15:53 23.22883 76.58335 31879 ft 484 kts 265°
2026-04-23 15:54 23.22344 76.51045 31880 ft 484 kts 265°
2026-04-23 15:54 23.21800 76.43762 31885 ft 484 kts 265°
2026-04-23 15:55 23.21237 76.36467 31885 ft 484 kts 265°
2026-04-23 15:55 23.20678 76.29171 31891 ft 484 kts 265°
2026-04-23 15:56 23.20124 76.21883 31897 ft 484 kts 265°
2026-04-23 15:56 23.19567 76.14577 31901 ft 484 kts 265°
2026-04-23 15:57 23.19008 76.07283 31907 ft 485 kts 265°
2026-04-23 15:57 23.18455 75.99988 31910 ft 485 kts 266°
2026-04-23 15:58 23.18209 75.92656 31913 ft 485 kts 269°
2026-04-23 15:58 23.18150 75.85463 31917 ft 485 kts 270°
2026-04-23 15:59 23.18094 75.78063 31919 ft 485 kts 269°
2026-04-23 15:59 23.18011 75.70654 31920 ft 485 kts 269°
2026-04-23 16:00 23.17916 75.63325 31918 ft 485 kts 269°
2026-04-23 16:00 23.17817 75.55986 31920 ft 485 kts 269°
2026-04-23 16:01 23.17715 75.48655 31916 ft 485 kts 269°
2026-04-23 16:01 23.17611 75.41329 31916 ft 485 kts 269°
2026-04-23 16:02 23.17505 75.34046 31910 ft 485 kts 269°
2026-04-23 16:02 23.17394 75.26719 31913 ft 485 kts 269°
2026-04-23 16:03 23.17279 75.19406 31912 ft 484 kts 269°
2026-04-23 16:03 23.17162 75.12085 31905 ft 484 kts 269°
2026-04-23 16:04 23.17030 75.04775 31904 ft 484 kts 269°
2026-04-23 16:04 23.16891 74.97496 31900 ft 484 kts 269°
2026-04-23 16:05 23.16780 74.91394 31895 ft 483 kts 269°
2026-04-23 16:05 23.16627 74.82877 31895 ft 483 kts 269°
2026-04-23 16:06 23.16493 74.75555 31884 ft 483 kts 269°
2026-04-23 16:06 23.16355 74.68256 31881 ft 483 kts 269°
2026-04-23 16:07 23.16214 74.60964 31875 ft 483 kts 269°
2026-04-23 16:07 23.16070 74.53667 31869 ft 483 kts 269°
2026-04-23 16:08 23.15922 74.46374 31865 ft 483 kts 269°
2026-04-23 16:08 23.15771 74.39083 31859 ft 483 kts 269°
2026-04-23 16:09 23.15567 74.31786 31853 ft 483 kts 268°
2026-04-23 16:09 23.15231 74.24510 31852 ft 483 kts 267°
2026-04-23 16:10 23.14876 74.17227 31846 ft 483 kts 267°
2026-04-23 16:10 23.14529 74.09942 31845 ft 483 kts 267°
2026-04-23 16:11 23.14186 74.02664 31837 ft 482 kts 267°
2026-04-23 16:11 23.13843 73.95437 31833 ft 482 kts 267°
2026-04-23 16:12 23.13494 73.88166 31832 ft 482 kts 267°
2026-04-23 16:12 23.13141 73.80890 31826 ft 482 kts 267°
2026-04-23 16:13 23.12785 73.73615 31820 ft 482 kts 267°
2026-04-23 16:13 23.12246 73.62724 31818 ft 482 kts 267°
2026-04-23 16:14 23.11882 73.55453 31813 ft 481 kts 267°
2026-04-23 16:14 23.11515 73.48200 31813 ft 481 kts 267°
2026-04-23 16:15 23.11135 73.40939 31810 ft 481 kts 267°
2026-04-23 16:15 23.10747 73.33698 31807 ft 481 kts 267°
2026-04-23 16:16 23.10364 73.26439 31807 ft 481 kts 267°
2026-04-23 16:16 23.09984 73.19187 31804 ft 480 kts 267°
2026-04-23 16:17 23.09602 73.11948 31805 ft 480 kts 267°
2026-04-23 16:17 23.09216 73.04705 31804 ft 480 kts 267°
2026-04-23 16:18 23.08827 72.97480 31799 ft 480 kts 267°
2026-04-23 16:18 23.08435 72.90249 31798 ft 480 kts 267°
2026-04-23 16:19 23.08042 72.83064 31800 ft 479 kts 267°
2026-04-23 16:19 23.07644 72.75842 31801 ft 479 kts 266°
2026-04-23 16:20 23.06720 72.62535 31805 ft 479 kts 263°
2026-04-23 16:21 23.05616 72.54511 31801 ft 479 kts 261°
2026-04-23 16:21 23.04921 72.49731 31802 ft 479 kts 261°
2026-04-23 16:22 23.03872 72.42337 31799 ft 479 kts 262°
2026-04-23 16:22 23.02589 72.33120 31802 ft 479 kts 262°
2026-04-23 16:23 23.01528 72.25498 31798 ft 479 kts 262°
2026-04-23 16:23 23.00699 72.19558 31801 ft 478 kts 262°
2026-04-23 16:24 22.99699 72.12426 31799 ft 478 kts 262°
2026-04-23 16:24 22.98700 72.05323 31808 ft 477 kts 262°
2026-04-23 16:25 22.97693 71.98187 31810 ft 477 kts 261°
2026-04-23 16:25 22.96686 71.91079 31810 ft 476 kts 262°
2026-04-23 16:26 22.95676 71.83973 31813 ft 476 kts 261°
2026-04-23 16:26 22.94663 71.76877 31813 ft 476 kts 261°
2026-04-23 16:27 22.93630 71.69773 31822 ft 476 kts 261°
2026-04-23 16:27 22.92603 71.62688 31822 ft 476 kts 261°
2026-04-23 16:28 22.91580 71.55600 31824 ft 475 kts 261°
2026-04-23 16:28 22.90561 71.48537 31819 ft 474 kts 261°
2026-04-23 16:29 22.89538 71.41480 31821 ft 474 kts 261°
2026-04-23 16:29 22.88519 71.34466 31821 ft 474 kts 261°
2026-04-23 16:30 22.87484 71.27374 31831 ft 473 kts 261°
2026-04-23 16:30 22.86460 71.20370 31830 ft 473 kts 261°
2026-04-23 16:31 22.85426 71.13329 31837 ft 473 kts 261°
2026-04-23 16:31 22.84391 71.06296 31839 ft 473 kts 261°
2026-04-23 16:32 22.83351 70.99255 31847 ft 473 kts 261°
2026-04-23 16:32 22.82309 70.92225 31844 ft 472 kts 261°
2026-04-23 16:33 22.81260 70.85190 31848 ft 472 kts 261°
2026-04-23 16:33 22.81000 70.78101 31848 ft 472 kts 272°
2026-04-23 16:34 22.81498 70.71006 31853 ft 472 kts 275°
2026-04-23 16:34 22.81873 70.66266 31854 ft 472 kts 274°